Powrót do katalogu

STARLINK-32445

AktywnyŁącznośćVLEO
NORAD 61546·PAYLOAD·🇺🇸 United States

Wystrzelony Oct 15, 2024 z Vandenberg Space Force Base

Loading…

Następne Przeloty (najbliższe 24 godziny)

TLE

ŚwieżeSource: CelesTrak SupGP

Epoka: Sep 15, 2026, 03:17 UTC

1 61546C 24184Q   26258.13729167  .00000734  00000+0  19812-4 0  2586
2 61546  53.1574 209.7489 0002644  57.2758 239.9753 15.37212058    11

Śledź STARLINK-32445 w czasie rzeczywistym z AllMySat

Download on the App Store